Radiation Dose at Monitoring Post of Fukushima Daini Nuclear Power Station
Date,Time,MP-1(microSv/h),MP-2(microSv/h),MP-3(microSv/h),MP-4(microSv/h),MP-5(microSv/h),MP-6(microSv/h),MP-7(microSv/h),Wind Direction,Wind Velocity(m/s),Rain
2021/02/22,00:00,0.177,0.159,0.256,0.244,0.238,0.139,0.085,southwest,3.4,No
2021/02/22,00:10,0.178,0.159,0.255,0.243,0.238,0.141,0.086,southwest,3.4,No
2021/02/22,00:20,0.175,0.158,0.255,0.243,0.240,0.139,0.086,south-southwest,3.7,No
2021/02/22,00:30,0.177,0.159,0.257,0.243,0.238,0.139,0.085,southwest,3.8,No
2021/02/22,00:40,0.178,0.160,0.255,0.244,0.239,0.140,0.085,southwest,3.2,No
2021/02/22,00:50,0.176,0.159,0.255,0.244,0.239,0.139,0.085,southwest,3.5,No
2021/02/22,01:00,0.177,0.159,0.256,0.244,0.237,0.140,0.085,southwest,3.0,No
2021/02/22,01:10,0.176,0.159,0.257,0.243,0.238,0.140,0.085,southwest,2.3,No
2021/02/22,01:20,0.177,0.160,0.256,0.244,0.238,0.140,0.085,west-southwest,2.0,No
2021/02/22,01:30,0.176,0.159,0.256,0.243,0.238,0.139,0.086,west-southwest,1.6,No
2021/02/22,01:40,0.176,0.158,0.256,0.244,0.239,0.139,0.085,west-southwest,1.2,No
2021/02/22,01:50,0.176,0.161,0.256,0.244,0.238,0.139,0.085,southwest,1.5,No
2021/02/22,02:00,0.176,0.159,0.256,0.244,0.237,0.140,0.085,southwest,2.1,No
2021/02/22,02:10,0.176,0.158,0.255,0.244,0.239,0.139,0.085,southwest,2.6,No
2021/02/22,02:20,0.177,0.159,0.257,0.242,0.239,0.139,0.085,south-southwest,2.8,No
2021/02/22,02:30,0.177,0.160,0.256,0.243,0.237,0.139,0.085,south-southwest,3.0,No
2021/02/22,02:40,0.176,0.159,0.257,0.241,0.240,0.139,0.085,south-southwest,2.0,No
2021/02/22,02:50,0.176,0.159,0.256,0.243,0.238,0.139,0.085,south-southwest,2.3,No
2021/02/22,03:00,0.177,0.159,0.257,0.242,0.239,0.139,0.085,south-southwest,2.3,No
2021/02/22,03:10,0.177,0.160,0.256,0.244,0.238,0.140,0.085,south,1.8,No
2021/02/22,03:20,0.177,0.158,0.256,0.243,0.238,0.139,0.085,south,2.2,No
2021/02/22,03:30,0.177,0.159,0.255,0.243,0.238,0.140,0.085,south,1.9,No
2021/02/22,03:40,0.176,0.160,0.255,0.243,0.239,0.140,0.085,south,3.0,No
2021/02/22,03:50,0.177,0.159,0.257,0.244,0.238,0.139,0.086,south,3.9,No
2021/02/22,04:00,0.177,0.159,0.256,0.243,0.238,0.139,0.086,south,4.5,No
2021/02/22,04:10,0.177,0.160,0.256,0.243,0.239,0.139,0.085,south,3.9,No
2021/02/22,04:20,0.178,0.159,0.257,0.244,0.238,0.139,0.085,south-southeast,4.4,No
2021/02/22,04:30,0.177,0.160,0.257,0.244,0.238,0.139,0.085,south,4.5,No
2021/02/22,04:40,0.177,0.159,0.256,0.244,0.240,0.139,0.085,south,5.5,No
2021/02/22,04:50,0.178,0.160,0.257,0.243,0.239,0.139,0.086,south,5.5,No
2021/02/22,05:00,0.176,0.158,0.257,0.244,0.239,0.140,0.086,south,5.5,No
2021/02/22,05:10,0.176,0.159,0.258,0.245,0.239,0.140,0.085,south,5.1,No
2021/02/22,05:20,0.178,0.159,0.258,0.243,0.238,0.139,0.085,south,5.0,No
2021/02/22,05:30,0.177,0.159,0.257,0.243,0.238,0.139,0.085,south,5.4,No
2021/02/22,05:40,0.177,0.159,0.257,0.243,0.238,0.140,0.085,south,5.2,No
2021/02/22,05:50,0.178,0.159,0.256,0.244,0.239,0.139,0.086,south,6.1,No
2021/02/22,06:00,0.178,0.159,0.257,0.243,0.239,0.140,0.085,south,6.6,No
2021/02/22,06:10,0.176,0.159,0.256,0.244,0.239,0.140,0.086,south,6.7,No
2021/02/22,06:20,0.177,0.159,0.257,0.243,0.238,0.139,0.085,south,6.6,No
2021/02/22,06:30,0.177,0.159,0.257,0.243,0.239,0.140,0.085,south,7.3,No
2021/02/22,06:40,0.176,0.160,0.256,0.243,0.239,0.139,0.085,south,6.2,No
2021/02/22,06:50,0.177,0.160,0.256,0.243,0.238,0.140,0.085,south-southwest,5.5,No
2021/02/22,07:00,0.176,0.160,0.257,0.243,0.237,0.139,0.085,south-southwest,5.6,No
2021/02/22,07:10,0.177,0.159,0.256,0.243,0.240,0.139,0.085,south-southwest,5.2,No
2021/02/22,07:20,0.176,0.160,0.256,0.244,0.238,0.140,0.084,south-southwest,5.1,No
2021/02/22,07:30,0.176,0.160,0.256,0.242,0.238,0.140,0.085,south-southwest,4.8,No
2021/02/22,07:40,0.177,0.160,0.256,0.243,0.239,0.139,0.086,south-southwest,4.4,No
2021/02/22,07:50,0.177,0.160,0.256,0.243,0.238,0.139,0.085,south-southwest,5.4,No
2021/02/22,08:00,0.177,0.159,0.256,0.242,0.238,0.139,0.086,south-southwest,4.6,No
2021/02/22,08:10,0.177,0.160,0.256,0.243,0.239,0.140,0.086,south-southwest,5.0,No
2021/02/22,08:20,0.177,0.160,0.258,0.241,0.237,0.140,0.086,south,5.5,No
2021/02/22,08:30,0.176,0.159,0.254,0.243,0.240,0.140,0.085,south,4.2,No
2021/02/22,08:40,0.176,0.159,0.255,0.241,0.237,0.140,0.086,south,5.8,No
2021/02/22,08:50,0.177,0.160,0.256,0.243,0.239,0.140,0.085,south,4.6,No
2021/02/22,09:00,0.176,0.159,0.256,0.242,0.238,0.139,0.085,south,3.6,No
2021/02/22,09:10,0.177,0.158,0.256,0.243,0.240,0.139,0.086,south-southeast,3.3,No
2021/02/22,09:20,0.176,0.158,0.255,0.242,0.238,0.139,0.085,south-southeast,3.5,No
2021/02/22,09:30,0.176,0.158,0.255,0.244,0.239,0.138,0.086,south-southeast,3.1,No
2021/02/22,09:40,0.176,0.158,0.256,0.243,0.238,0.139,0.084,south-southeast,3.3,No
2021/02/22,09:50,0.176,0.157,0.254,0.242,0.239,0.138,0.084,south-southeast,4.0,No
2021/02/22,10:00,0.174,0.158,0.256,0.242,0.237,0.139,0.085,south-southeast,3.0,No
2021/02/22,10:10,0.177,0.159,0.254,0.242,0.238,0.140,0.085,south-southeast,3.3,No
2021/02/22,10:20,0.176,0.158,0.255,0.243,0.238,0.138,0.084,south-southeast,3.9,No
2021/02/22,10:30,0.175,0.160,0.253,0.242,0.236,0.140,0.084,south-southeast,4.8,No
2021/02/22,10:40,0.174,0.158,0.252,0.241,0.239,0.140,0.084,south-southeast,5.2,No
2021/02/22,10:50,0.177,0.159,0.255,0.244,0.240,0.139,0.086,south-southeast,6.0,No
2021/02/22,11:00,0.175,0.158,0.253,0.243,0.236,0.141,0.085,south-southeast,6.1,No
2021/02/22,11:10,0.176,0.159,0.252,0.241,0.238,0.139,0.084,south-southeast,5.6,No
2021/02/22,11:20,0.176,0.160,0.256,0.244,0.239,0.140,0.085,south-southeast,6.3,No
2021/02/22,11:30,0.176,0.158,0.253,0.242,0.237,0.139,0.085,south-southeast,6.7,No
2021/02/22,11:40,0.174,0.159,0.254,0.242,0.238,0.138,0.084,south-southeast,6.8,No
2021/02/22,11:50,0.177,0.158,0.257,0.244,0.239,0.140,0.086,south-southeast,7.0,No
2021/02/22,12:00,0.175,0.158,0.254,0.242,0.237,0.139,0.085,south-southeast,5.3,No
2021/02/22,12:10,0.175,0.159,0.253,0.241,0.236,0.139,0.085,south-southeast,3.7,No
2021/02/22,12:20,0.174,0.158,0.257,0.243,0.239,0.139,0.086,south-southeast,3.6,No
2021/02/22,12:30,0.177,0.159,0.254,0.242,0.238,0.138,0.085,south-southeast,4.4,No
2021/02/22,12:40,0.176,0.159,0.254,0.241,0.236,0.139,0.085,south-southeast,5.2,No
2021/02/22,12:50,0.175,0.158,0.253,0.244,0.238,0.139,0.084,south-southeast,4.9,No
2021/02/22,13:00,0.174,0.159,0.258,0.244,0.240,0.139,0.085,south-southeast,5.4,No
2021/02/22,13:10,0.174,0.160,0.256,0.240,0.239,0.139,0.085,south-southeast,5.6,No
2021/02/22,13:20,0.176,0.159,0.254,0.242,0.236,0.140,0.085,south-southeast,6.3,No
2021/02/22,13:30,0.177,0.158,0.253,0.243,0.237,0.139,0.084,south,6.3,No
2021/02/22,13:40,0.175,0.160,0.257,0.241,0.241,0.139,0.085,south-southeast,6.2,No
2021/02/22,13:50,0.174,0.158,0.257,0.244,0.238,0.140,0.085,south,6.5,No
2021/02/22,14:00,0.177,0.160,0.253,0.245,0.236,0.139,0.085,south-southeast,5.9,No
2021/02/22,14:10,0.177,0.159,0.256,0.241,0.237,0.139,0.085,south-southeast,4.2,No
2021/02/22,14:20,0.176,0.158,0.257,0.243,0.240,0.140,0.086,south,5.7,No
2021/02/22,14:30,0.174,0.159,0.254,0.242,0.239,0.139,0.086,south-southeast,5.8,No
2021/02/22,14:40,0.177,0.159,0.255,0.243,0.237,0.140,0.085,south-southeast,4.8,No
2021/02/22,14:50,0.177,0.158,0.257,0.244,0.239,0.140,0.085,east,2.4,No
2021/02/22,15:00,0.176,0.160,0.257,0.243,0.240,0.139,0.086,east-southeast,0.6,No
2021/02/22,15:10,0.178,0.159,0.256,0.244,0.239,0.139,0.086,-,CALM,No
2021/02/22,15:20,0.176,0.160,0.258,0.243,0.240,0.140,0.085,southeast,1.3,No
2021/02/22,15:30,0.178,0.159,0.257,0.244,0.238,0.139,0.085,-,CALM,No
2021/02/22,15:40,0.177,0.160,0.258,0.244,0.242,0.140,0.085,north-northwest,0.6,No
2021/02/22,15:50,0.176,0.160,0.256,0.245,0.239,0.140,0.086,northwest,1.5,No
2021/02/22,16:00,0.177,0.161,0.259,0.244,0.241,0.139,0.085,northwest,1.4,No
2021/02/22,16:10,0.177,0.159,0.258,0.245,0.240,0.140,0.086,northwest,2.2,No
2021/02/22,16:20,0.178,0.160,0.256,0.243,0.238,0.140,0.084,northwest,3.1,No
2021/02/22,16:30,0.177,0.159,0.257,0.245,0.240,0.140,0.085,west-northwest,2.5,No
2021/02/22,16:40,0.177,0.159,0.256,0.244,0.239,0.140,0.086,northwest,3.2,No
2021/02/22,16:50,0.177,0.160,0.258,0.245,0.240,0.139,0.086,northwest,2.8,No
2021/02/22,17:00,0.177,0.160,0.256,0.243,0.239,0.139,0.085,northwest,1.4,No
2021/02/22,17:10,0.178,0.159,0.257,0.243,0.240,0.140,0.085,west-northwest,2.0,No
2021/02/22,17:20,0.177,0.161,0.257,0.244,0.240,0.139,0.086,west-northwest,3.2,No
2021/02/22,17:30,0.177,0.159,0.257,0.243,0.238,0.140,0.085,west-northwest,3.1,No
2021/02/22,17:40,0.177,0.159,0.256,0.245,0.240,0.139,0.085,west,3.2,No
2021/02/22,17:50,0.177,0.159,0.257,0.243,0.239,0.139,0.085,west-northwest,2.5,No
2021/02/22,18:00,0.177,0.159,0.256,0.245,0.240,0.139,0.085,west,2.2,No
2021/02/22,18:10,0.176,0.160,0.257,0.245,0.238,0.140,0.085,northwest,2.8,No
2021/02/22,18:20,0.177,0.159,0.256,0.242,0.239,0.140,0.085,northwest,4.2,No
2021/02/22,18:30,0.177,0.160,0.256,0.244,0.239,0.140,0.084,west-northwest,3.3,No
2021/02/22,18:40,0.177,0.159,0.258,0.243,0.239,0.140,0.085,west-northwest,1.2,No
2021/02/22,18:50,0.177,0.160,0.256,0.244,0.239,0.140,0.085,west,3.6,No
2021/02/22,19:00,0.176,0.159,0.255,0.245,0.239,0.139,0.085,west-northwest,4.2,No
2021/02/22,19:10,0.176,0.160,0.257,0.243,0.240,0.141,0.084,west,7.5,No
2021/02/22,19:20,0.177,0.159,0.255,0.244,0.239,0.140,0.085,west-northwest,8.8,No
2021/02/22,19:30,0.176,0.159,0.257,0.243,0.241,0.140,0.085,west-northwest,9.6,No
2021/02/22,19:40,0.176,0.160,0.257,0.243,0.238,0.139,0.085,west-northwest,10.1,No
2021/02/22,19:50,0.178,0.159,0.257,0.243,0.239,0.139,0.085,west-northwest,9.5,No
2021/02/22,20:00,0.177,0.159,0.257,0.242,0.240,0.140,0.085,west-northwest,10.9,No
2021/02/22,20:10,0.177,0.159,0.257,0.245,0.237,0.139,0.085,west-northwest,10.3,No
2021/02/22,20:20,0.176,0.159,0.256,0.243,0.240,0.138,0.085,west,11.8,No
2021/02/22,20:30,0.177,0.160,0.258,0.243,0.238,0.139,0.085,west-northwest,11.4,No
2021/02/22,20:40,0.176,0.159,0.257,0.244,0.239,0.139,0.084,west,12.6,No
2021/02/22,20:50,0.177,0.159,0.255,0.243,0.239,0.139,0.084,west-northwest,11.5,No
2021/02/22,21:00,0.175,0.159,0.257,0.244,0.238,0.140,0.086,west-northwest,10.9,No
2021/02/22,21:10,0.176,0.159,0.255,0.244,0.241,0.139,0.085,west-northwest,11.8,No
2021/02/22,21:20,0.177,0.159,0.257,0.244,0.239,0.140,0.085,west,12.8,No
2021/02/22,21:30,0.177,0.159,0.257,0.245,0.239,0.139,0.084,west-northwest,10.9,No
2021/02/22,21:40,0.177,0.159,0.256,0.243,0.239,0.140,0.085,west,9.5,No
2021/02/22,21:50,0.177,0.159,0.256,0.244,0.240,0.139,0.084,west,9.2,No
2021/02/22,22:00,0.177,0.158,0.256,0.245,0.239,0.139,0.085,west-northwest,10.3,No
2021/02/22,22:10,0.176,0.160,0.257,0.244,0.238,0.140,0.085,west,13.1,No
2021/02/22,22:20,0.176,0.159,0.256,0.244,0.239,0.139,0.085,west-northwest,13.7,No
2021/02/22,22:30,0.176,0.159,0.255,0.244,0.238,0.140,0.085,west,13.4,No
2021/02/22,22:40,0.177,0.160,0.256,0.242,0.239,0.140,0.085,west,12.9,No
2021/02/22,22:50,0.177,0.159,0.257,0.244,0.238,0.139,0.084,west,11.5,No
2021/02/22,23:00,0.178,0.159,0.257,0.244,0.239,0.139,0.085,west,10.3,No
2021/02/22,23:10,0.177,0.159,0.257,0.245,0.240,0.139,0.085,west,8.1,No
2021/02/22,23:20,0.177,0.159,0.257,0.244,0.239,0.140,0.084,west-southwest,9.0,No
2021/02/22,23:30,0.177,0.159,0.257,0.243,0.241,0.140,0.085,west-southwest,10.1,No
2021/02/22,23:40,0.176,0.158,0.257,0.244,0.238,0.139,0.085,west-southwest,9.5,No
2021/02/22,23:50,0.177,0.160,0.258,0.243,0.239,0.139,0.085,west-southwest,10.4,No
